When you browse on this site, cookies collect data to enhance your experience and personalize the content and advertising you see.
Visit our Privacy Policy to learn more. By continuing to use the site, you agree to this use of cookies and data.
  • In Austria
  • List of Countries
  • For 7 days
  • Water Temperature
  • Weather Map
  • News
  • Weather Widgets
  • user-avatar
    Login

    Hourly Weather Zastavne

    Today, 29 January, Wednesday

    Time Temperature Precipitation Wind Pressure Humidity
    00:00 +2°C° 0.1 mm 2 mps 729 mmHg 87%
    01:00 +2°C° 0.1 mm 2 mps 728 mmHg 88%
    02:00 +3°C° 0 mm 2 mps 728 mmHg 86%
    03:00 +1°C° 2.1 mm 3 mps 727 mmHg 90%
    04:00 0°C° 2.1 mm 4 mps 727 mmHg 94%
    05:00 -1°C° 2.1 mm 4 mps 727 mmHg 98%
    06:00 -1°C° 0.7 mm 5 mps 727 mmHg 97%
    07:00 -1°C° 0.7 mm 6 mps 728 mmHg 97%
    08:00 -1°C° 0 mm 6 mps 728 mmHg 96%
    09:00 -1°C° 0 mm 6 mps 729 mmHg 92%
    10:00 -1°C° 0 mm 6 mps 729 mmHg 88%
    11:00 -1°C° 0 mm 6 mps 729 mmHg 84%
    12:00 +1°C° 0 mm 6 mps 730 mmHg 79%
    13:00 +1°C° 0 mm 6 mps 730 mmHg 74%
    14:00 +1°C° 0 mm 6 mps 730 mmHg 70%
    15:00 +1°C° 0 mm 6 mps 730 mmHg 73%
    16:00 -1°C° 0 mm 6 mps 730 mmHg 75%
    17:00 0°C° 0 mm 5 mps 730 mmHg 78%
    18:00 -2°C° 0.1 mm 6 mps 731 mmHg 83%
    19:00 -2°C° 0.1 mm 6 mps 731 mmHg 88%
    20:00 -2°C° 0.1 mm 7 mps 731 mmHg 94%
    21:00 -2°C° 0.1 mm 7 mps 731 mmHg 93%
    22:00 -2°C° 0.1 mm 7 mps 731 mmHg 92%
    23:00 -2°C° 0.1 mm 8 mps 731 mmHg 91%

    Tomorrow, 30 January, Thursday

    Time Temperature Precipitation Wind Pressure Humidity
    00:00 -2°C° 0.1 mm 7 mps 732 mmHg 91%
    01:00 -2°C° 0.1 mm 7 mps 732 mmHg 91%
    02:00 -2°C° 0.1 mm 7 mps 733 mmHg 92%
    03:00 -2°C° 0.1 mm 7 mps 733 mmHg 92%
    04:00 -2°C° 0.1 mm 7 mps 733 mmHg 92%
    05:00 -2°C° 0.1 mm 7 mps 733 mmHg 92%
    06:00 -2°C° 0.1 mm 7 mps 734 mmHg 91%
    07:00 -2°C° 0.1 mm 7 mps 734 mmHg 91%
    08:00 -3°C° 0.1 mm 7 mps 734 mmHg 91%
    09:00 -2°C° 0.1 mm 7 mps 734 mmHg 92%
    10:00 -2°C° 0.1 mm 8 mps 734 mmHg 93%
    11:00 -2°C° 0.1 mm 8 mps 735 mmHg 94%
    12:00 -1°C° 0.1 mm 8 mps 735 mmHg 90%
    13:00 -1°C° 0.1 mm 8 mps 735 mmHg 85%
    14:00 0°C° 0.1 mm 8 mps 735 mmHg 81%
    15:00 -1°C° 0 mm 7 mps 735 mmHg 81%
    16:00 -1°C° 0 mm 6 mps 736 mmHg 80%
    17:00 0°C° 0 mm 5 mps 736 mmHg 80%
    18:00 -1°C° 0 mm 5 mps 736 mmHg 80%
    19:00 -1°C° 0 mm 4 mps 736 mmHg 80%
    20:00 -1°C° 0 mm 4 mps 736 mmHg 80%
    21:00 -1°C° 0 mm 4 mps 736 mmHg 81%
    22:00 -1°C° 0 mm 5 mps 735 mmHg 81%
    23:00 -1°C° 0 mm 5 mps 735 mmHg 81%

    Day after tomorrow, 31 January, Friday

    Time Temperature Precipitation Wind Pressure Humidity
    00:00 -1°C° 0.1 mm 5 mps 734 mmHg 84%
    01:00 -2°C° 0.1 mm 6 mps 734 mmHg 88%
    02:00 -2°C° 0.1 mm 6 mps 734 mmHg 91%
    03:00 0°C° 0 mm 5 mps 733 mmHg 90%
    04:00 0°C° 0 mm 5 mps 733 mmHg 90%
    05:00 0°C° 0 mm 5 mps 732 mmHg 89%
    06:00 0°C° 0 mm 5 mps 732 mmHg 86%
    07:00 0°C° 0 mm 5 mps 731 mmHg 83%
    08:00 +1°C° 0 mm 5 mps 731 mmHg 80%
    09:00 0°C° 0.8 mm 5 mps 730 mmHg 85%
    10:00 -1°C° 0.8 mm 6 mps 730 mmHg 90%
    11:00 -1°C° 0.8 mm 7 mps 729 mmHg 95%
    12:00 0°C° 1.2 mm 7 mps 728 mmHg 94%
    13:00 0°C° 1.2 mm 7 mps 728 mmHg 92%
    14:00 +2°C° 1.2 mm 6 mps 728 mmHg 91%
    15:00 +3°C° 0.8 mm 7 mps 728 mmHg 91%
    16:00 +3°C° 0.8 mm 7 mps 728 mmHg 90%
    17:00 +4°C° 0.8 mm 7 mps 729 mmHg 90%
    18:00 +3°C° 0.3 mm 7 mps 730 mmHg 90%
    19:00 +3°C° 0.3 mm 6 mps 731 mmHg 90%
    20:00 +3°C° 0.3 mm 6 mps 732 mmHg 91%
    21:00 +2°C° 0.1 mm 5 mps 732 mmHg 91%
    22:00 +2°C° 0.1 mm 5 mps 733 mmHg 92%
    23:00 +1°C° 0.1 mm 4 mps 734 mmHg 92%

    1 February, Saturday

    Time Temperature Precipitation Wind Pressure Humidity
    00:00 +2°C° 0 mm 3 mps 734 mmHg 93%
    01:00 +2°C° 0 mm 3 mps 735 mmHg 93%
    02:00 +2°C° 0 mm 3 mps 736 mmHg 94%
    03:00 +2°C° 0 mm 3 mps 736 mmHg 95%
    04:00 +3°C° 0 mm 3 mps 736 mmHg 95%
    05:00 +3°C° 0 mm 3 mps 736 mmHg 95%
    06:00 +3°C° 0.1 mm 3 mps 736 mmHg 94%
    07:00 +3°C° 0.1 mm 4 mps 736 mmHg 92%
    08:00 +4°C° 0.1 mm 4 mps 737 mmHg 91%
    09:00 +4°C° 0 mm 4 mps 737 mmHg 89%
    10:00 +4°C° 0 mm 4 mps 737 mmHg 87%
    11:00 +5°C° 0 mm 3 mps 737 mmHg 85%
    12:00 +6°C° 0 mm 4 mps 736 mmHg 81%
    13:00 +6°C° 0 mm 4 mps 736 mmHg 77%
    14:00 +7°C° 0 mm 4 mps 736 mmHg 74%
    15:00 +7°C° 0 mm 5 mps 736 mmHg 75%
    16:00 +6°C° 0 mm 5 mps 735 mmHg 77%
    17:00 +5°C° 0 mm 6 mps 735 mmHg 79%
    18:00 +5°C° 0 mm 5 mps 735 mmHg 79%
    19:00 +5°C° 0 mm 5 mps 735 mmHg 80%
    20:00 +5°C° 0 mm 5 mps 734 mmHg 81%
    21:00 +6°C° 0 mm 5 mps 734 mmHg 81%
    22:00 +6°C° 0 mm 5 mps 733 mmHg 81%
    23:00 +7°C° 0 mm 5 mps 733 mmHg 81%

    2 February, Sunday

    Time Temperature Precipitation Wind Pressure Humidity
    00:00 +7°C° 0.1 mm 5 mps 733 mmHg 82%
    01:00 +7°C° 0.1 mm 6 mps 732 mmHg 83%
    02:00 +7°C° 0.1 mm 6 mps 732 mmHg 85%
    03:00 +7°C° 0.4 mm 6 mps 732 mmHg 86%
    04:00 +7°C° 0.4 mm 6 mps 732 mmHg 88%
    05:00 +7°C° 0.4 mm 6 mps 732 mmHg 90%
    06:00 +5°C° 0.7 mm 6 mps 732 mmHg 88%
    07:00 +5°C° 0.7 mm 6 mps 733 mmHg 85%
    08:00 +5°C° 0.7 mm 6 mps 734 mmHg 83%
    09:00 +5°C° 0 mm 6 mps 735 mmHg 78%
    10:00 +4°C° 0 mm 7 mps 736 mmHg 72%
    11:00 +4°C° 0 mm 7 mps 736 mmHg 67%
    12:00 +4°C° 0 mm 7 mps 737 mmHg 66%
    13:00 +4°C° 0 mm 7 mps 737 mmHg 66%
    14:00 +4°C° 0 mm 7 mps 737 mmHg 65%
    15:00 +4°C° 0 mm 7 mps 738 mmHg 70%
    16:00 +3°C° 0 mm 7 mps 738 mmHg 74%
    17:00 +2°C° 0 mm 6 mps 738 mmHg 79%
    18:00 +2°C° 0 mm 7 mps 738 mmHg 81%
    19:00 +2°C° 0 mm 7 mps 738 mmHg 84%
    20:00 +2°C° 0 mm 7 mps 739 mmHg 86%
    21:00 +2°C° 0.1 mm 7 mps 739 mmHg 84%
    22:00 +2°C° 0.1 mm 7 mps 739 mmHg 82%
    23:00 +2°C° 0.1 mm 7 mps 739 mmHg 80%

    3 February, Monday

    Time Temperature Precipitation Wind Pressure Humidity
    00:00 +2°C° 0 mm 6 mps 739 mmHg 81%
    01:00 +2°C° 0 mm 6 mps 739 mmHg 81%
    02:00 +2°C° 0 mm 6 mps 739 mmHg 81%
    03:00 +1°C° 0 mm 6 mps 739 mmHg 81%
    04:00 +1°C° 0 mm 5 mps 739 mmHg 82%
    05:00 +1°C° 0 mm 5 mps 739 mmHg 82%
    06:00 +1°C° 0.1 mm 5 mps 738 mmHg 85%
    07:00 +1°C° 0.1 mm 4 mps 738 mmHg 89%
    08:00 +1°C° 0.1 mm 4 mps 737 mmHg 92%
    09:00 +1°C° 0.4 mm 4 mps 737 mmHg 92%
    10:00 +3°C° 0.4 mm 4 mps 737 mmHg 91%
    11:00 +3°C° 0.4 mm 4 mps 737 mmHg 91%
    12:00 +3°C° 0.9 mm 5 mps 737 mmHg 90%
    13:00 +3°C° 0.9 mm 5 mps 737 mmHg 89%
    14:00 +4°C° 0.9 mm 6 mps 737 mmHg 89%
    15:00 +4°C° 0.4 mm 7 mps 737 mmHg 87%
    16:00 +4°C° 0.4 mm 7 mps 737 mmHg 85%
    17:00 +4°C° 0.4 mm 7 mps 738 mmHg 84%
    18:00 +4°C° 0.1 mm 7 mps 738 mmHg 84%
    19:00 +4°C° 0.1 mm 6 mps 739 mmHg 84%
    20:00 +3°C° 0.1 mm 6 mps 740 mmHg 85%
    21:00 +3°C° 0 mm 5 mps 740 mmHg 86%
    22:00 +4°C° 0 mm 4 mps 740 mmHg 87%
    23:00 +3°C° 0 mm 4 mps 741 mmHg 89%
    Show more